Bridgeport, CT

8:52 PM EDT on March 27, 2017 (GMT -0400)
Sikorsky Memorial

Weather History for KBDR - June, 2014

Change the Weather History Date:

Monday, June 2, 2014

  Actual Average Record
Temperature  
Mean Temperature 68 °F 64 °F  
Max Temperature 79 °F 73 °F 88 °F (1989)
Min Temperature 56 °F 56 °F 43 °F (1966)
Degree Days  
Heating Degree Days 0 3  
Month to date heating degree days 2 6  
Since 1 June heating degree days 2 6  
Since 1 July heating degree days 5616 5366  
Cooling Degree Days 3 2  
Month to date cooling degree days 3 4  
Year to date cooling degree days 26 28  
Since 1 June cooling degree days 3 4  
Growing Degree Days 17 (Base 50)    
Moisture  
Dew Point 50 °F    
Average Humidity 57    
Maximum Humidity 78    
Minimum Humidity 36    
Precipitation  
Precipitation 0.00 in 0.14 in 1.44 in (1982)
Month to date precipitation 0.00 0.29  
Year to date precipitation 21.66 18.16  
Snow  
Snow 0.00 in 0.00 in 0.00 in (2002)
Month to date snowfall 0.0 0.0  
Since 1 July snowfall 57.4 27.6  
Snow Depth 0.00 in    
Sea Level Pressure  
Sea Level Pressure 30.15 in    
Wind  
Wind Speed 8 mph (SW)    
Max Wind Speed 17 mph    
Max Gust Speed 20 mph    
Visibility 10 miles    
Events      
T = Trace of Precipitation, MM = Missing Value Source: NWS Daily Summary

Daily Weather History Graph

Daily Weather History Graph

Search for Another Location

Airport or City:

Trip Planner

Search our weather history database for the weather conditions in past years. The results will help you decide how hot, cold, wet, or windy it might be!

Date:

Astronomy

Jun. 02, 2014 Rise Set
Actual Time 5:21 AM EDT 8:19 PM EDT
Civil Twilight 4:48 AM EDT 8:52 PM EDT
Nautical Twilight 4:06 AM EDT 9:34 PM EDT
Astronomical Twilight 3:18 AM EDT 10:23 PM EDT
Moon 9:48 AM EDT (6/2) 11:45 PM EDT (6/2)
Length of Visible Light 16h 04m
Length of Day
14h 57m
Waxing Crescent, 21% of the Moon is Illuminated
Jun 2
Waxing Crescent
Jun 5
First Quarter
Jun 13
Full
Jun 19
Last Quarter
Jun 27
New

Hourly Weather History & Observations

Time (EDT) Temp. Dew Point Humidity Pressure Visibility Wind Dir Wind Speed Gust Speed Precip Events Conditions
12:52 AM 62.1 °F 46.0 °F 56% 30.26 in 10.0 mi WSW 3.5 mph - N/A   Clear
1:52 AM 60.1 °F 45.0 °F 57% 30.26 in 10.0 mi West 3.5 mph - N/A   Clear
2:52 AM 59.0 °F 46.0 °F 62% 30.25 in 10.0 mi Calm Calm - N/A   Clear
3:52 AM 57.9 °F 46.9 °F 67% 30.25 in 10.0 mi WSW 3.5 mph - N/A   Clear
4:52 AM 57.0 °F 46.9 °F 69% 30.24 in 10.0 mi SW 3.5 mph - N/A   Clear
5:52 AM 57.9 °F 48.0 °F 70% 30.24 in 10.0 mi Calm Calm - N/A   Clear
6:52 AM 60.1 °F 46.9 °F 62% 30.24 in 10.0 mi WSW 4.6 mph - N/A   Clear
7:52 AM 63.0 °F 46.9 °F 56% 30.23 in 10.0 mi WSW 5.8 mph - N/A   Clear
8:52 AM 64.0 °F 48.9 °F 58% 30.24 in 10.0 mi SSW 10.4 mph - N/A   Clear
9:52 AM 66.9 °F 48.9 °F 52% 30.22 in 10.0 mi SW 11.5 mph - N/A   Clear
10:52 AM 71.1 °F 51.1 °F 49% 30.20 in 10.0 mi SW 11.5 mph - N/A   Clear
11:52 AM 73.9 °F 51.1 °F 45% 30.19 in 10.0 mi SW 11.5 mph - N/A   Clear
12:52 PM 77.0 °F 50.0 °F 39% 30.16 in 10.0 mi SW 12.7 mph - N/A   Clear
1:52 PM 77.0 °F 48.2 °F 36% 30.13 in 10.0 mi SW 11.5 mph - N/A   Clear
2:52 PM 75.0 °F 53.1 °F 46% 30.10 in 10.0 mi South 11.5 mph - N/A   Clear
3:52 PM 78.1 °F 53.1 °F 42% 30.09 in 10.0 mi SSW 15.0 mph - N/A   Clear
4:52 PM 77.0 °F 53.6 °F 44% 30.07 in 10.0 mi SSW 13.8 mph - N/A   Clear
5:52 PM 73.9 °F 54.0 °F 50% 30.05 in 10.0 mi SSW 12.7 mph - N/A   Clear
6:52 PM 72.0 °F 54.0 °F 53% 30.04 in 10.0 mi SSW 12.7 mph - N/A   Clear
7:52 PM 70.0 °F 54.0 °F 57% 30.03 in 10.0 mi SSW 11.5 mph - N/A   Clear
8:52 PM 66.9 °F 55.0 °F 66% 30.04 in 10.0 mi SSW 6.9 mph - N/A   Clear
9:52 PM 64.9 °F 55.0 °F 70% 30.04 in 10.0 mi SSW 6.9 mph - N/A   Clear
10:52 PM 64.0 °F 55.0 °F 73% 30.04 in 10.0 mi SSW 3.5 mph - N/A   Clear
11:52 PM 63.0 °F 55.0 °F 75% 30.04 in 10.0 mi Calm Calm - N/A   Clear